Overview Statistics Trail Chart Weather Telemetry Raw packets
 

This is the latest recevied weather packets stored in our database for station/object N0NB. If no packets are shown the sender has not sent any weather packets the latest 10 day(s).

<< 35 36 37 38 39 40 41 >>
Time Temp. Humidity Pressure Rain* Wind** Luminosity Snow
1788116417 33.89° C 49% 1009 hPa 0 mm - 829 W/m² -
1788115817 33.89° C 53% 1009 hPa 0 mm - 708 W/m² -
1788115217 33.89° C 52% 1009 hPa 0 mm - 832 W/m² -
1788114630 32.78° C 51% 1009 hPa 0 mm - 676 W/m² -
1788114017 33.33° C 51% 1008.9 hPa 0 mm - 557 W/m² -
1788113417 32.78° C 52% 1009.2 hPa 0 mm - 752 W/m² -
1788112816 32.78° C 53% 1009.5 hPa 0 mm - 478 W/m² -
1788112216 33.33° C 54% 1009.7 hPa 0 mm - 813 W/m² -
1788111616 32.22° C 56% 1009.6 hPa 0 mm - 826 W/m² -
1788111017 32.22° C 55% 1009.5 hPa 0 mm - 481 W/m² -
1788110416 31.67° C 56% 1009.5 hPa 0 mm - 717 W/m² -
1788109816 31.11° C 57% 1009.8 hPa 0 mm - 442 W/m² -
1788109216 31.11° C 57% 1010 hPa 0 mm - 361 W/m² -
1788108616 31.11° C 56% 1010 hPa 0 mm - 395 W/m² -
1788108016 31.11° C 56% 1009.9 hPa 0 mm - 382 W/m² -
1788107416 31.67° C 55% 1009.8 hPa 0 mm - 800 W/m² -
1788106816 31.11° C 58% 1009.6 hPa 0 mm - 736 W/m² -
1788106216 30.56° C 56% 1009.5 hPa 0 mm - 460 W/m² -
1788105616 30° C 59% 1009.4 hPa 0 mm - 677 W/m² -
1788105016 29.44° C 60% 1009.2 hPa 0 mm - 540 W/m² -
1788104416 29.44° C 60% 1009.1 hPa 0 mm - 588 W/m² -
1788103816 29.44° C 58% 1008.9 hPa 0 mm - 443 W/m² -
1788103217 28.89° C 60% 1008.7 hPa 0 mm - 571 W/m² -
1788102616 28.89° C 60% 1008.7 hPa 0 mm - 480 W/m² -
1788102016 28.33° C 59% 1008.7 hPa 0 mm - 418 W/m² -

* Rain latest hour (hover to see other rain measurements)
** Current wind speed in m/s (hover to see current wind gust speed)